Fulton, NY

1:52 PM EDT on April 25, 2017 (GMT -0400)
Oswego County

Weather History for KFZY - March, 2014

Change the Weather History Date:

Saturday, March 29, 2014

  Actual Average (KSYR) Record (KSYR)
Temperature  
Mean Temperature 36 °F -  
Max Temperature 42 °F 52 °F 82 °F (1946)
Min Temperature 33 °F 31 °F 2 °F (1923)
Degree Days  
Heating Degree Days 29    
Moisture  
Dew Point 32 °F    
Average Humidity 83    
Maximum Humidity 89    
Minimum Humidity 70    
Precipitation  
Precipitation 0.46 in - - ()
Sea Level Pressure  
Sea Level Pressure 30.14 in    
Wind  
Wind Speed 7 mph (NNE)    
Max Wind Speed 21 mph    
Max Gust Speed 28 mph    
Visibility 7 miles    
Events Rain    
Averages and records for this station are not official NWS values.
T = Trace of Precipitation, MM = Missing Value Source: NWS Daily Summary

Daily Weather History Graph

Daily Weather History Graph

Search for Another Location

Airport or City:

Trip Planner

Search our weather history database for the weather conditions in past years. The results will help you decide how hot, cold, wet, or windy it might be!

Date:

Astronomy

Mar. 29, 2014 Rise Set
Actual Time 6:52 AM EDT 7:28 PM EDT
Civil Twilight 6:24 AM EDT 7:57 PM EDT
Nautical Twilight 5:50 AM EDT 8:31 PM EDT
Astronomical Twilight 5:15 AM EDT 9:06 PM EDT
Moon 6:02 AM EDT (3/29) 6:30 PM EDT (3/29)
Length of Visible Light 13h 33m
Length of Day
12h 35m
Waning Crescent, 2% of the Moon is Illuminated
Mar 29
Waning Crescent
Mar 30
New
Apr 7
First Quarter
Apr 15
Full
Apr 22
Last Quarter

Hourly Weather History & Observations

Time (EDT) Temp. Windchill Dew Point Humidity Pressure Visibility Wind Dir Wind Speed Gust Speed Precip Events Conditions
12:54 AM 37.9 °F 30.5 °F 32.0 °F 79% 30.18 in 10.0 mi WNW 11.5 mph - N/A   Overcast
1:54 AM 37.0 °F 31.6 °F 32.0 °F 82% 30.21 in 10.0 mi West 6.9 mph - N/A   Overcast
2:54 AM 36.0 °F - 32.0 °F 86% 30.20 in 9.0 mi Calm Calm - N/A   Overcast
3:47 AM 35.1 °F - 32.0 °F 89% 30.20 in 6.0 mi Calm Calm - 0.00 in Rain Light Rain
3:54 AM 35.1 °F - 32.0 °F 89% 30.22 in 5.0 mi Calm Calm - 0.00 in Rain Light Rain
4:47 AM 35.1 °F 32.2 °F 32.0 °F 89% 30.23 in 7.0 mi West 3.5 mph - 0.01 in Rain Light Rain
4:54 AM 35.1 °F - 32.0 °F 89% 30.24 in 7.0 mi Calm Calm - 0.01 in Rain Light Rain
5:54 AM 35.1 °F 32.2 °F 32.0 °F 89% 30.23 in 4.0 mi NNW 3.5 mph - 0.00 in   Overcast
6:38 AM 35.1 °F - 32.0 °F 89% 30.24 in 6.0 mi Calm Calm - N/A   Overcast
6:50 AM 35.6 °F 32.8 °F 32.0 °F 87% 30.24 in 5.0 mi North 3.5 mph - N/A   Overcast
6:54 AM 35.1 °F 32.2 °F 32.0 °F 89% 30.26 in 5.0 mi NNE 3.5 mph - N/A   Overcast
7:34 AM 35.1 °F 30.1 °F 32.0 °F 89% 30.24 in 6.0 mi NNE 5.8 mph - N/A   Overcast
7:54 AM 35.1 °F 27.9 °F 32.0 °F 89% 30.25 in 6.0 mi NNE 9.2 mph - N/A   Overcast
8:17 AM 35.1 °F 26.9 °F 32.0 °F 89% 30.22 in 5.0 mi NNE 11.5 mph - N/A   Overcast
8:51 AM 35.6 °F 31.7 °F 32.0 °F 87% 30.22 in 6.0 mi NE 4.6 mph - N/A   Scattered Clouds
8:54 AM 36.0 °F 29.6 °F 32.0 °F 86% 30.24 in 7.0 mi NE 8.1 mph - N/A   Mostly Cloudy
9:17 AM 37.0 °F 34.5 °F 32.0 °F 82% 30.23 in 9.0 mi East 3.5 mph - N/A   Overcast
9:47 AM 37.0 °F 34.5 °F 32.0 °F 82% 30.23 in 10.0 mi Variable 3.5 mph - N/A   Overcast
9:54 AM 37.0 °F - 32.0 °F 82% 30.25 in 10.0 mi Calm Calm - N/A   Overcast
10:54 AM 39.0 °F - 33.1 °F 79% 30.24 in 10.0 mi Calm Calm - N/A   Overcast
11:10 AM 39.9 °F - 33.1 °F 77% 30.21 in 10.0 mi Calm Calm - N/A   Overcast
11:14 AM 39.0 °F 36.8 °F 33.1 °F 79% 30.21 in 10.0 mi East 3.5 mph - N/A   Overcast
11:39 AM 39.0 °F 36.8 °F 33.1 °F 79% 30.20 in 10.0 mi Variable 3.5 mph - N/A   Overcast
11:54 AM 39.9 °F 37.8 °F 33.1 °F 77% 30.21 in 10.0 mi Variable 3.5 mph - N/A   Overcast
12:54 PM 39.9 °F 33.9 °F 32.0 °F 73% 30.19 in 10.0 mi North 9.2 mph - N/A   Overcast
1:54 PM 39.9 °F 35.1 °F 30.9 °F 70% 30.16 in 10.0 mi NNE 6.9 mph - N/A   Overcast
2:54 PM 37.9 °F 29.6 °F 30.0 °F 73% 30.12 in 10.0 mi North 13.8 mph - N/A   Overcast
3:54 PM 37.9 °F 31.5 °F 30.0 °F 73% 30.09 in 10.0 mi North 9.2 mph - 0.00 in Rain Light Rain
4:13 PM 37.9 °F 31.5 °F 30.0 °F 73% 30.05 in 6.0 mi North 9.2 mph - 0.00 in Rain Light Rain
4:54 PM 37.0 °F 29.8 °F 30.9 °F 79% 30.05 in 8.0 mi North 10.4 mph - 0.04 in Rain Light Rain
5:54 PM 37.0 °F 29.3 °F 32.0 °F 82% 30.03 in 5.0 mi NNE 11.5 mph - 0.02 in Rain Light Rain
6:54 PM 36.0 °F 27.1 °F 30.9 °F 82% 30.03 in 6.0 mi North 13.8 mph - 0.04 in Rain Light Rain
7:36 PM 35.1 °F 25.2 °F 30.9 °F 85% 30.00 in 5.0 mi NNE 16.1 mph - 0.02 in Rain Light Rain
7:54 PM 35.1 °F 25.2 °F 30.9 °F 85% 30.01 in 5.0 mi NNE 16.1 mph - 0.03 in Rain Light Rain
8:11 PM 35.1 °F 25.5 °F 30.9 °F 85% 29.99 in 5.0 mi NNE 15.0 mph - 0.01 in Rain Light Rain
8:41 PM 35.1 °F 24.8 °F 30.9 °F 85% 29.96 in 6.0 mi NNE 17.3 mph - 0.02 in Rain Light Rain
8:54 PM 34.0 °F 23.4 °F 30.9 °F 89% 29.99 in 5.0 mi North 17.3 mph 27.6 mph 0.02 in Rain Light Rain
9:54 PM 34.0 °F 23.4 °F 30.0 °F 85% 29.95 in 5.0 mi NNE 17.3 mph - 0.08 in Rain Rain
10:35 PM 34.0 °F 23.4 °F 30.0 °F 85% 29.92 in 5.0 mi NNE 17.3 mph - 0.05 in Rain Rain
10:54 PM 33.1 °F 21.2 °F 30.0 °F 89% 29.91 in 4.0 mi NNE 20.7 mph - 0.10 in Rain Rain
11:54 PM 33.1 °F 22.2 °F 30.0 °F 89% 29.90 in 3.0 mi North 17.3 mph 25.3 mph 0.12 in Rain Rain